• In Russia
  • List of Countries
  • For 7 days
  • Water Temperature
  • Satellite Maps
  • Weather Map
  • Weather Widgets
  • user-avatar
    Login

    Hourly Weather Tadzhura

    Today, 24 February, Saturday

    Time Temperature Precipitation Wind Pressure Humidity
    00:00 +28°C° 0 mm 3 mps 754 mmHg 65%
    01:00 +28°C° 0 mm 3 mps 754 mmHg 68%
    02:00 +27°C° 0 mm 3 mps 754 mmHg 71%
    03:00 +27°C° 0 mm 3 mps 754 mmHg 75%
    04:00 +27°C° 0 mm 3 mps 754 mmHg 78%
    05:00 +26°C° 0 mm 3 mps 754 mmHg 80%
    06:00 +26°C° 0 mm 3 mps 755 mmHg 82%
    07:00 +27°C° 0 mm 3 mps 755 mmHg 76%
    08:00 +28°C° 0 mm 4 mps 755 mmHg 69%
    09:00 +29°C° 0 mm 4 mps 755 mmHg 62%
    10:00 +32°C° 0 mm 4 mps 755 mmHg 57%
    11:00 +33°C° 0 mm 4 mps 755 mmHg 52%
    12:00 +34°C° 0 mm 5 mps 754 mmHg 46%
    13:00 +34°C° 0 mm 4 mps 754 mmHg 46%
    14:00 +35°C° 0 mm 4 mps 753 mmHg 46%
    15:00 +35°C° 0 mm 4 mps 753 mmHg 46%
    16:00 +34°C° 0 mm 4 mps 753 mmHg 50%
    17:00 +33°C° 0 mm 4 mps 753 mmHg 54%
    18:00 +33°C° 0 mm 4 mps 752 mmHg 57%
    19:00 +32°C° 0 mm 4 mps 753 mmHg 61%
    20:00 +30°C° 0 mm 4 mps 753 mmHg 65%
    21:00 +29°C° 0 mm 4 mps 753 mmHg 69%
    22:00 +29°C° 0 mm 4 mps 753 mmHg 71%
    23:00 +28°C° 0 mm 4 mps 753 mmHg 73%

    Tomorrow, 25 February, Sunday

    Time Temperature Precipitation Wind Pressure Humidity
    00:00 +28°C° 0 mm 4 mps 753 mmHg 76%
    01:00 +28°C° 0 mm 4 mps 753 mmHg 77%
    02:00 +28°C° 0 mm 4 mps 753 mmHg 79%
    03:00 +28°C° 0 mm 3 mps 753 mmHg 80%
    04:00 +27°C° 0 mm 3 mps 753 mmHg 81%
    05:00 +27°C° 0 mm 3 mps 754 mmHg 82%
    06:00 +27°C° 0 mm 4 mps 754 mmHg 83%
    07:00 +28°C° 0 mm 4 mps 754 mmHg 79%
    08:00 +29°C° 0 mm 4 mps 755 mmHg 74%
    09:00 +30°C° 0 mm 4 mps 755 mmHg 70%
    10:00 +30°C° 0 mm 5 mps 755 mmHg 67%
    11:00 +32°C° 0 mm 5 mps 755 mmHg 64%
    12:00 +33°C° 0 mm 5 mps 755 mmHg 61%
    13:00 +33°C° 0 mm 5 mps 754 mmHg 60%
    14:00 +33°C° 0 mm 4 mps 754 mmHg 58%
    15:00 +34°C° 0 mm 4 mps 753 mmHg 57%
    16:00 +33°C° 0 mm 4 mps 753 mmHg 59%
    17:00 +32°C° 0 mm 4 mps 753 mmHg 62%
    18:00 +32°C° 0 mm 4 mps 753 mmHg 65%
    19:00 +30°C° 0 mm 4 mps 754 mmHg 69%
    20:00 +30°C° 0 mm 3 mps 754 mmHg 72%
    21:00 +29°C° 0 mm 3 mps 755 mmHg 75%
    22:00 +29°C° 0 mm 3 mps 755 mmHg 77%
    23:00 +28°C° 0 mm 3 mps 755 mmHg 79%

    Day after tomorrow, 26 February, Monday

    Time Temperature Precipitation Wind Pressure Humidity
    00:00 +28°C° 0 mm 3 mps 755 mmHg 81%
    01:00 +28°C° 0 mm 3 mps 754 mmHg 82%
    02:00 +28°C° 0 mm 3 mps 754 mmHg 83%
    03:00 +28°C° 0 mm 3 mps 754 mmHg 84%
    04:00 +27°C° 0 mm 2 mps 754 mmHg 84%
    05:00 +27°C° 0 mm 2 mps 755 mmHg 85%
    06:00 +27°C° 0 mm 2 mps 755 mmHg 85%
    07:00 +28°C° 0 mm 2 mps 755 mmHg 81%
    08:00 +29°C° 0 mm 3 mps 756 mmHg 77%
    09:00 +29°C° 0 mm 3 mps 757 mmHg 73%
    10:00 +30°C° 0 mm 3 mps 756 mmHg 68%
    11:00 +32°C° 0 mm 4 mps 756 mmHg 63%
    12:00 +33°C° 0 mm 4 mps 755 mmHg 59%
    13:00 +34°C° 0 mm 4 mps 754 mmHg 58%
    14:00 +34°C° 0 mm 4 mps 754 mmHg 56%
    15:00 +34°C° 0 mm 5 mps 753 mmHg 55%
    16:00 +33°C° 0 mm 5 mps 753 mmHg 59%
    17:00 +33°C° 0 mm 5 mps 753 mmHg 62%
    18:00 +32°C° 0 mm 5 mps 753 mmHg 66%
    19:00 +30°C° 0 mm 5 mps 754 mmHg 69%
    20:00 +30°C° 0 mm 4 mps 754 mmHg 73%
    21:00 +29°C° 0 mm 4 mps 755 mmHg 77%
    22:00 +29°C° 0 mm 4 mps 755 mmHg 78%
    23:00 +28°C° 0 mm 4 mps 755 mmHg 79%

    27 February, Tuesday

    Time Temperature Precipitation Wind Pressure Humidity
    00:00 +28°C° 0 mm 4 mps 755 mmHg 81%
    01:00 +28°C° 0 mm 4 mps 754 mmHg 82%
    02:00 +28°C° 0 mm 4 mps 754 mmHg 83%
    03:00 +28°C° 0 mm 4 mps 753 mmHg 84%
    04:00 +27°C° 0 mm 4 mps 754 mmHg 84%
    05:00 +27°C° 0 mm 4 mps 754 mmHg 85%
    06:00 +27°C° 0 mm 4 mps 754 mmHg 85%
    07:00 +28°C° 0.1 mm 4 mps 755 mmHg 82%
    08:00 +28°C° 0.1 mm 4 mps 755 mmHg 79%
    09:00 +29°C° 0.1 mm 5 mps 756 mmHg 76%
    10:00 +30°C° 0 mm 5 mps 756 mmHg 72%
    11:00 +30°C° 0 mm 5 mps 755 mmHg 69%
    12:00 +32°C° 0 mm 6 mps 755 mmHg 65%
    13:00 +33°C° 0 mm 5 mps 754 mmHg 63%
    14:00 +33°C° 0 mm 5 mps 753 mmHg 60%
    15:00 +33°C° 0 mm 5 mps 752 mmHg 58%
    16:00 +33°C° 0 mm 5 mps 753 mmHg 61%
    17:00 +32°C° 0 mm 5 mps 753 mmHg 63%
    18:00 +30°C° 0 mm 5 mps 753 mmHg 66%
    19:00 +30°C° 0 mm 4 mps 754 mmHg 69%
    20:00 +29°C° 0 mm 4 mps 754 mmHg 72%
    21:00 +29°C° 0 mm 4 mps 755 mmHg 75%
    22:00 +28°C° 0.1 mm 4 mps 755 mmHg 77%
    23:00 +28°C° 0.1 mm 4 mps 754 mmHg 79%

    28 February, Wednesday

    Time Temperature Precipitation Wind Pressure Humidity
    00:00 +28°C° 0.1 mm 4 mps 754 mmHg 80%
    01:00 +28°C° 0 mm 3 mps 754 mmHg 82%
    02:00 +28°C° 0 mm 3 mps 754 mmHg 83%
    03:00 +27°C° 0 mm 3 mps 753 mmHg 85%
    04:00 +27°C° 0 mm 3 mps 754 mmHg 85%
    05:00 +27°C° 0 mm 3 mps 754 mmHg 86%
    06:00 +27°C° 0 mm 3 mps 754 mmHg 87%
    07:00 +28°C° 0 mm 3 mps 755 mmHg 84%
    08:00 +28°C° 0 mm 4 mps 755 mmHg 81%
    09:00 +29°C° 0 mm 4 mps 756 mmHg 77%
    10:00 +30°C° 0 mm 4 mps 755 mmHg 73%
    11:00 +32°C° 0 mm 4 mps 755 mmHg 69%
    12:00 +32°C° 0 mm 4 mps 754 mmHg 64%
    13:00 +33°C° 0 mm 4 mps 753 mmHg 62%
    14:00 +33°C° 0 mm 4 mps 752 mmHg 60%
    15:00 +34°C° 0 mm 4 mps 752 mmHg 58%
    16:00 +33°C° 0 mm 4 mps 752 mmHg 61%
    17:00 +33°C° 0 mm 4 mps 752 mmHg 63%
    18:00 +32°C° 0 mm 4 mps 752 mmHg 66%
    19:00 +32°C° 0 mm 4 mps 752 mmHg 70%
    20:00 +30°C° 0 mm 4 mps 753 mmHg 73%
    21:00 +29°C° 0 mm 4 mps 753 mmHg 77%
    22:00 +29°C° 0 mm 3 mps 753 mmHg 79%
    23:00 +29°C° 0 mm 3 mps 753 mmHg 80%

    1 March, Thursday

    Time Temperature Precipitation Wind Pressure Humidity
    00:00 +28°C° 0 mm 3 mps 753 mmHg 82%
    01:00 +28°C° 0 mm 3 mps 753 mmHg 83%
    02:00 +28°C° 0 mm 3 mps 752 mmHg 84%
    03:00 +28°C° 0 mm 3 mps 752 mmHg 85%
    04:00 +28°C° 0 mm 3 mps 753 mmHg 85%
    05:00 +28°C° 0 mm 3 mps 753 mmHg 86%
    06:00 +28°C° 0 mm 3 mps 753 mmHg 86%
    07:00 +28°C° 0 mm 3 mps 754 mmHg 84%
    08:00 +29°C° 0 mm 3 mps 754 mmHg 81%
    09:00 +29°C° 0 mm 3 mps 755 mmHg 78%
    10:00 +30°C° 0 mm 3 mps 754 mmHg 75%
    11:00 +31°C° 0 mm 3 mps 754 mmHg 71%
    12:00 +32°C° 0 mm 4 mps 753 mmHg 68%
    13:00 +33°C° 0 mm 4 mps 753 mmHg 67%
    14:00 +33°C° 0 mm 4 mps 752 mmHg 65%
    15:00 +33°C° 0 mm 4 mps 751 mmHg 64%
    16:00 +33°C° 0 mm 4 mps 751 mmHg 66%
    17:00 +33°C° 0 mm 4 mps 751 mmHg 67%
    18:00 +32°C° 0 mm 4 mps 752 mmHg 69%
    19:00 +32°C° 0 mm 4 mps 752 mmHg 73%
    20:00 +30°C° 0 mm 4 mps 752 mmHg 76%
    21:00 +29°C° 0 mm 4 mps 753 mmHg 80%
    22:00 +29°C° 0 mm 3 mps 753 mmHg 81%
    23:00 +29°C° 0 mm 3 mps 752 mmHg 82%
    Show more